Location: Reeth
(54.3881°N, 1.9432°W)
Time: 15:11:25
(UTC+01:00)

N. Korean satellite - Visible Passes

Search period start: 20 September 2018 00:00
Search period end: 30 September 2018 00:00
Orbit: 458 x 511 km, 97.2° (Epoch: 20 September)

Date Brightness Start Highest point End Pass type
(mag) Time Alt. Az. Time Alt. Az. Time Alt. Az.
20 Sep 9.9 19:42:50 10° SW 19:45:08 16° W 19:47:28 10° NW visible
23 Sep 10.8 06:15:00 10° ENE 06:15:35 10° E 06:16:11 10° E visible
23 Sep 10.6 20:05:07 10° W 20:05:48 10° W 20:06:31 10° WNW visible
24 Sep 9.8 19:38:41 10° SW 19:41:11 18° W 19:43:44 10° NW visible
27 Sep 10.3 20:00:31 10° WSW 20:01:49 12° W 20:03:09 10° WNW visible
28 Sep 9.8 19:34:31 10° SW 19:37:12 20° W 19:39:56 10° NW visible
